WetterOnline ( https://www.wetteronline.de )

Wetter aktuell Bietigheim

Aktuelles Wetter: Rheinstetten (116m)

6-stündlich | Neueste Meldungen
Ortszeit Temperatur Wetter
Di, 22.06. 2:00 17.3° C bewölkt
Mo, 21.06. 20:00 24.9° C bedeckt
Mo, 21.06. 14:00 24.9° C leicht bewölkt
Mo, 21.06. 8:00 19.1° C leicht bewölkt
Mo, 21.06. 2:00 17.1° C wolkig
So, 20.06. 20:00 22.1° C leichter Regen
So, 20.06. 14:00 25.7° C bedeckt
So, 20.06. 8:00 22.9° C leicht bewölkt
Ortszeit Temperatur Wetter
Di, 22.06. 4:00 16.3° C wolkig
Di, 22.06. 3:50 16.3° C wolkig
Di, 22.06. 3:40 16.2° C leicht bewölkt
Di, 22.06. 3:30 17.1° C leicht bewölkt
Di, 22.06. 3:20 17.1° C leicht bewölkt
Di, 22.06. 3:10 17.3° C leicht bewölkt
Di, 22.06. 3:00 17.7° C wolkenlos
Di, 22.06. 2:30 17.4° C fast wolkenlos
Di, 22.06. 2:00 17.3° C bewölkt
Di, 22.06. 1:30 16.9° C wolkig
Di, 22.06. 1:00 17.0° C bedeckt
Ortszeit Relative Feuchte Sichtweite
Di, 22.06. 2:00 88% >70 km
Mo, 21.06. 20:00 59% >70 km
Mo, 21.06. 14:00 55% 65 km
Mo, 21.06. 8:00 82% 45 km
Mo, 21.06. 2:00 97% 30 km
So, 20.06. 20:00 92% 17 km
So, 20.06. 14:00 59% 55 km
So, 20.06. 8:00 67% >70 km
Ortszeit Relative Feuchte Sichtweite
Di, 22.06. 4:00 96% 26 km
Di, 22.06. 3:50 96% -
Di, 22.06. 3:40 95% -
Di, 22.06. 3:30 90% 50 km
Di, 22.06. 3:20 90% -
Di, 22.06. 3:10 90% -
Di, 22.06. 3:00 89% 45 km
Di, 22.06. 2:30 90% 50 km
Di, 22.06. 2:00 88% >70 km
Di, 22.06. 1:30 91% 60 km
Di, 22.06. 1:00 91% 60 km
Ortszeit Niederschlagsmenge Niederschlagsart
Di, 22.06. 2:00 2 l/m2 in 6 Std. Regen
Mo, 21.06. 20:00 0.0 l/m2 in 12 Std. -
Mo, 21.06. 14:00 0.0 l/m2 in 6 Std. -
Mo, 21.06. 8:00 8 l/m2 in 12 Std. -
Mo, 21.06. 2:00 8 l/m2 in 6 Std. Regen
So, 20.06. 20:00 1 l/m2 in 12 Std. Regen
So, 20.06. 14:00 0.1 l/m2 in 6 Std. Regen
So, 20.06. 8:00 0.1 l/m2 in 12 Std. -
Ortszeit Niederschlagsmenge Niederschlagsart
Di, 22.06. 4:00 0.0 l/m2 in 1 Std. -
Di, 22.06. 3:50 keine Meldung -
Di, 22.06. 3:40 keine Meldung -
Di, 22.06. 3:30 0.0 l/m2 in 1 Std. -
Di, 22.06. 3:20 keine Meldung -
Di, 22.06. 3:10 keine Meldung -
Di, 22.06. 3:00 0.0 l/m2 in 1 Std. -
Di, 22.06. 2:30 0.0 l/m2 in 1 Std. -
Di, 22.06. 2:00 0.0 l/m2 in 1 Std. Regen
Di, 22.06. 1:30 0.0 l/m2 in 1 Std. -
Di, 22.06. 1:00 0.1 l/m2 in 1 Std. -
Ortszeit Stärke Spitze Richtung
km/h Bft. km/h Grad Sektor
Di, 22.06. 2:00 11 2 58 20° N
Mo, 21.06. 20:00 0 0 22 - -
Mo, 21.06. 14:00 11 2 43 280° W
Mo, 21.06. 8:00 24 4 31 230° SW
Mo, 21.06. 2:00 7 2 79 210° SW
So, 20.06. 20:00 11 2 22 160° S
So, 20.06. 14:00 11 2 25 50° NO
So, 20.06. 8:00 13 3 41 270° W
Ortszeit Stärke Spitze Richtung
km/h Bft. km/h Grad Sektor
Di, 22.06. 4:00 4 1 7 330° NW
Di, 22.06. 3:50 4 1 - 330° NW
Di, 22.06. 3:40 4 1 - 50° NO
Di, 22.06. 3:30 4 1 7 10° N
Di, 22.06. 3:20 4 1 - 10° N
Di, 22.06. 3:10 4 1 - 20° N
Di, 22.06. 3:00 4 1 18 40° NO
Di, 22.06. 2:30 7 2 18 50° NO
Di, 22.06. 2:00 11 2 22 20° N
Di, 22.06. 1:30 7 2 11 50° NO
Di, 22.06. 1:00 6 1 17 40° NO
Ortszeit Untergrenze Bedeckung Gattung
total tief tief mittel hoch
Di, 22.06. 2:00 2400 m 8/8 4/8 - - -
Mo, 21.06. 20:00 4800 m 8/8 8/8 - - -
Mo, 21.06. 14:00 1230 m 2/8 2/8 - - -
Mo, 21.06. 8:00 7800 m 8/8 0/8 - - -
Mo, 21.06. 2:00 2700 m 8/8 3/8 - - -
So, 20.06. 20:00 1800 m 7/8 3/8 - - -
So, 20.06. 14:00 4200 m 8/8 8/8 - - -
So, 20.06. 8:00 10500 m 5/8 0/8 - - -
Ortszeit Bedeckungsgrad in Achtel und Wolkenuntergrenze
Di, 22.06. 4:00 4(4500m) 6(5400m)
Di, 22.06. 3:50 4(4500m) 6(5400m)
Di, 22.06. 3:40 4(4500m) 4(5700m)
Di, 22.06. 3:30 1(2700m)
Di, 22.06. 3:20 1(2700m) 2(6000m)
Di, 22.06. 3:10 2(6000m)
Di, 22.06. 3:00 1(6000m)
Di, 22.06. 2:30 1(6000m)
Di, 22.06. 2:00 4(2400m) 7(6000m) 8(9000m)
Di, 22.06. 1:30 3(2700m) 8(5100m) 8(6900m)
Di, 22.06. 1:00 2(4500m) 8(5400m) 8(6600m)
Ortszeit Luftdruck NN (hPa) Tendenz (hPa in 3 Std.)
Di, 22.06. 2:00 1012 + 0,8
Mo, 21.06. 20:00 1008 - 0,2
Mo, 21.06. 14:00 1009 + 0,2
Mo, 21.06. 8:00 1008 + 0,3
Mo, 21.06. 2:00 1008 + 1,1
So, 20.06. 20:00 1007 - 0,5
So, 20.06. 14:00 1009 - 2,6
So, 20.06. 8:00 1012 + 1,3
Ortszeit Luftdruck NN (hPa) Tendenz (hPa in 3 Std.)
Di, 22.06. 4:00 1011 + 0,1
Di, 22.06. 3:50 1011 keine Meldung
Di, 22.06. 3:40 1011 keine Meldung
Di, 22.06. 3:30 1011 + 0,8
Di, 22.06. 3:20 1011 keine Meldung
Di, 22.06. 3:10 1011 keine Meldung
Di, 22.06. 3:00 1011 + 1,0
Di, 22.06. 2:30 1012 + 0,8
Di, 22.06. 2:00 1012 + 0,8
Di, 22.06. 1:30 1012 + 1,5
Di, 22.06. 1:00 1011 + 2,3
Ortszeit Schneehöhe (cm)
Di, 22.06. 2:00 -
Mo, 21.06. 20:00 -
Mo, 21.06. 14:00 -
Mo, 21.06. 8:00 -
Mo, 21.06. 2:00 -
So, 20.06. 20:00 -
So, 20.06. 14:00 -
So, 20.06. 8:00 -
Ortszeit Schneehöhe (cm)
Di, 22.06. 4:00 -
Di, 22.06. 3:50 -
Di, 22.06. 3:40 -
Di, 22.06. 3:30 -
Di, 22.06. 3:20 -
Di, 22.06. 3:10 -
Di, 22.06. 3:00 -
Di, 22.06. 2:30 -
Di, 22.06. 2:00 -
Di, 22.06. 1:30 -
Di, 22.06. 1:00 -
Link zu dieser Seite / Seite empfehlen

Das Wetter in ...